Preview of NWS' New Version of Forecast
This preview is not operational and should not be used for support decisions.
Latest weather observations around

Fort Myers, Southwest Florida International Airport (KRSW)

Using English Units (Switch to International System of Units)
Date/ Time (EST) Wind (mph) Vis. (mi) Weather Sky Cond. Temp (°F) Rel. Humidity Wind Chill (°F) Heat Index (°F) Pressure Precip. (in)
Air Dwpt 6 hour Altimeter (inHg) Sea level (inHg) 1 hr 3 hr 6 hr
Max Min
Feb 21 16:53   10 Partly Cloudy SCT095 77 71     82%   78 30.06 30.05 0    
Feb 21 15:53 W 6 10 Light Rain FEW028 BKN045 OVC065 75 70     84%   76 30.06 30.06 0 0  
Feb 21 15:39 SW 11 3 Heavy Rain FEW027 BKN037 OVC060 75 69     82%   76 30.07   0    
Feb 21 14:53 WSW 13 10 Partly Cloudy SCT030 SCT085 80 70     71%   83 30.06 30.05      
Feb 21 14:00 WSW 7 10 Partly Cloudy SCT030 SCT085 82 69     65%   85 30.07        
Feb 21 13:53 W 10 10 Mostly Cloudy SCT018 BKN023 84 69     61%   88 30.07 30.06      
Feb 21 12:53 S 8 10 Mostly Cloudy SCT018 BKN023 84 67     57%   87 30.1 30.09      
Feb 21 11:53 S 11 10 Mostly Cloudy SCT018 BKN023 83 69     63%   87 30.13 30.12      
Feb 21 10:53 S 10 10 Mostly Cloudy SCT018 BKN023 79 69     72%   80 30.14 30.13      
Feb 21 09:53 SSE 11 10 Mostly Cloudy SCT018 BKN023 78 71     79%   79 30.14 30.13      
Feb 21 08:53 SSE 8 10 Mostly Clear FEW023 FEW055 75 71     88%   76 30.12 30.11      
Feb 21 07:53 ESE 5 10 Clear CLR 70 69     97%     30.1 30.09      
Feb 21 06:53 ESE 8 10 Mostly Clear FEW021 69 68     96%     30.08 30.07 0   0
Feb 21 05:53 ESE 6 9 Partly Cloudy FEW026 SCT060 68 67     96%     30.08 30.07      
Feb 21 04:53 E 5 10 Clear   67 66     97%     30.07 30.06      
Feb 21 03:53 E 6 10 Clear CLR 67 66     97%     30.07 30.06      
Feb 21 02:53 E 6 10 Clear CLR 67 65     93%     30.08 30.07      
Feb 21 01:53 ENE 3 10 Clear CLR 68 66     93%     30.09 30.08      
Feb 21 00:53 Calm 10 Clear CLR 68 65     90%     30.1 30.09      
Feb 20 23:53 Calm 10 Clear CLR 69 66     90%     30.11 30.1      
Feb 20 22:53 ESE 5 10 Clear CLR 72 66     82%   73 30.11 30.11      
Feb 20 21:53 ESE 6 10 Clear   73 68     84%   74 30.1 30.1      
Feb 20 20:53 Calm 10 Clear CLR 73 69     87%   74 30.1 30.09      
Feb 20 19:53 Calm 10 Mostly Clear FEW047 FEW055 74 69     85%   75 30.07 30.06      
Feb 20 18:53 Calm 10 Mostly Cloudy BKN049 BKN060 76 70     82%   77 30.06 30.05     0
Feb 20 17:53 W 8 10 Mostly Clear FEW050 78 69     74%   79 30.04 30.03      
Feb 20 16:53 S 3 10 Cloudy BKN050 OVC070 82 69     65%   85 30.03 30.02      
Feb 20 15:53 S 3 10 Mostly Clear FEW039 FEW070 80 68     67%   83 30.04 30.03 0 0  
Feb 20 14:53 S 11 10 Mostly Clear FEW060 81 68     65%   84 30.04 30.03      
Feb 20 13:53 SSW 9 10 Cloudy SCT060 OVC070 80 67     64%   82 30.06 30.05      
Feb 20 12:53 S 16 10 Cloudy SCT040 BKN050 OVC075 77 69     77%   78 30.1 30.1 0   0
Feb 20 11:53 SSE 18 10 Mostly Cloudy SCT033 BKN043 BKN060 82 68     63%   85 30.1 30.09      
Feb 20 10:53 SSE 16 10 Partly Cloudy SCT025 82 69     65%   85 30.11 30.1      
Feb 20 10:45 SE 11 10 Partly Cloudy SCT023 81 70     69%   84 30.11        
Feb 20 10:00 SE 15 10 Mostly Cloudy BKN019 79 71     77%   82 30.11        
Feb 20 09:53 SE 13 10 Mostly Cloudy BKN010 78 70     76%   79 30.11 30.1      
Feb 20 09:14 SE 11 10 Mostly Cloudy BKN010 76 71     85%   77 30.12        
Feb 20 08:53 SSE 8 10 Mostly Cloudy BKN016 75 71     88%   76 30.12 30.11      
Feb 20 07:53 SE 3 8 Clear CLR 71 70     96%   72 30.11 30.1      
Feb 20 06:53 E 3 9 Clear CLR 70 69     97%     30.09 30.08      
Feb 20 06:27 ESE 3 10 Mostly Cloudy FEW017 SCT022 BKN065 70 69     97%     30.08        
Feb 20 06:05 Calm 10 Cloudy SCT009 OVC019 71 69     93%   72 30.08        
Feb 20 05:53 Calm 9 Mostly Cloudy BKN009 BKN017 71 69     93%   72 30.07 30.06      
Feb 20 05:43 Calm 10 Cloudy BKN009 OVC018 71 69     93%   72 30.07        
Feb 20 05:07 ESE 3 10 Cloudy OVC010 71 70     96%   72 30.07        
Feb 20 04:53 ESE 3 10 Cloudy BKN008 OVC014 71 70     96%   72 30.07 30.06      
Feb 20 04:44 ESE 5 10 Mostly Cloudy BKN009 BKN020 72 70     93%   73 30.06        
Feb 20 04:35 ESE 6 10 Cloudy SCT009 BKN020 OVC075 71 70     96%   72 30.06        
Feb 20 03:53 E 7 10 Cloudy OVC070 71 69     93%   72 30.07 30.06      
Feb 20 02:53 E 9 10 Cloudy BKN060 OVC075 71 69     93%   72 30.08 30.07      
Feb 20 01:53 ESE 14 10 Cloudy OVC060 71 68     90%   72 30.1 30.09      
Feb 20 00:53 E 9 10 Clear CLR 70 67     90%     30.11 30.1      
Feb 19 23:53 E 9 10 Clear CLR 71 66     84%   72 30.12 30.11      
Feb 19 22:53 E 9 10 Clear   72 66     82%   73 30.14 30.13      
Feb 19 21:53 E 9 10 Clear CLR 73 65     76%   74 30.13 30.12      
Feb 19 20:53 ESE 9 10 Clear CLR 74 64     71%   74 30.13 30.12      
Feb 19 19:53 ESE 10 10 Clear CLR 76 64     67%   76 30.11 30.1      
Feb 19 18:53 ESE 9 10 Clear CLR 78 63     60%   78 30.1 30.09      
Feb 19 17:53 ESE 11 10 Clear CLR 82 63     53%   83 30.09 30.09      
Feb 19 16:53 SE 16 10 Clear CLR 84 63     49%   85 30.09 30.08      
Feb 19 15:53 ESE 15 10 Mostly Cloudy BKN055 87 62     43%   88 30.08 30.07      
Feb 19 15:02 SE 17 10 Mostly Clear FEW055 87 62     43%   88 30.09        
Feb 19 14:53 SE 16 10 Mostly Clear FEW055 87 62     43%   88 30.09 30.09      
Feb 19 13:53 SE 11 10 Mostly Clear FEW055 87 64     46%   88 30.12 30.11      
Feb 19 12:53 ESE 11 10 Partly Cloudy FEW047 FEW055 SCT075 86 66     51%   88 30.16 30.15      
Feb 19 11:53 E 10 10 Partly Cloudy SCT070 84 66     55%   86 30.19 30.18      
Feb 19 10:53 6 10 Clear CLR 81 69     67%   84 30.21 30.2      
Feb 19 10:15 E 6 10 Partly Cloudy SCT013 79 71     77%   82 30.21        
Feb 19 10:00 ESE 8 10 Mostly Cloudy BKN011 BKN075 78 72     82%   79 30.21        
Feb 19 09:53 ESE 9 10 Mostly Cloudy BKN009 BKN075 77 72     84%   78 30.21 30.2      
Feb 19 09:46 ESE 7 10 Mostly Cloudy BKN009 BKN075 76 72     88%   77 30.21        
Feb 19 09:39 ESE 6 10 Partly Cloudy FEW009 SCT075 76 72     88%   77 30.21        
Feb 19 09:07 SE 5 10 Partly Cloudy SCT015 SCT080 72 71     97%   73 30.21        
Feb 19 08:53 ESE 5 7 Mostly Cloudy SCT002 BKN016 71 71     100%   73 30.2 30.19      
Feb 19 08:37 E 3 1 Fog/Mist BKN002 70 70     100%     30.2        
Feb 19 08:32 E 3 0.75 Fog/Mist BKN002 70 70     100%     30.2        
Feb 19 07:53 ENE 3 0.12 Fog VV002 69 69     100%     30.18 30.17      
Feb 19 06:53 ENE 5 0.12 Clear   69 69     100%     30.16 30.15      
Feb 19 06:41 NE 6 0.25 Fog OVC002 69 68     96%     30.15        
Feb 19 06:25 NE 5 0.5 Fog OVC003 69 68     96%     30.15        
Feb 19 05:53 NNE 3 6 Fog/Mist BKN004 69 68     96%     30.14 30.13      
Feb 19 04:53 E 5 8 Mostly Clear FEW008 FEW015 69 68     96%     30.14 30.13      
Feb 19 04:51 E 5 8 Mostly Clear FEW008 FEW015 70 68     94%     30.14        
Feb 19 04:44 E 3 9 Mostly Cloudy SCT008 BKN015 70 68     93%     30.14        
Feb 19 04:25 ESE 6 10 Cloudy BKN007 OVC016 71 69     93%   72 30.14        
Feb 19 04:11 ESE 6 8 Cloudy FEW008 OVC016 70 68     93%     30.14        
Feb 19 04:03 ESE 6 7 Mostly Cloudy BKN015 69 68     96%     30.14        
Feb 19 03:53 ESE 3 6 Fog/Mist SCT013 SCT075 68 67     96%     30.14 30.13      
Feb 19 02:53 Calm 5 Fog/Mist CLR 68 67     96%     30.14 30.13      
Feb 19 01:53 E 5 7 Clear CLR 69 68     96%     30.15 30.14      
Feb 19 00:53 ENE 3 8 Clear CLR 69 67     93%     30.15 30.14      
Feb 18 23:53 NE 3 9 Clear CLR 69 68     96%     30.16 30.16      
Feb 18 22:53 Calm 10 Clear CLR 71 69     93%   72 30.17 30.16      
Feb 18 21:53 Calm 10 Clear CLR 71 69     93%   72 30.16 30.15      
Feb 18 20:53 Calm 10 Clear CLR 73 70     90%   74 30.14 30.14      
Feb 18 19:53 WSW 3 10 Clear CLR 75 69     82%   76 30.13 30.12      
Feb 18 18:53 WSW 7 10 Clear CLR 75 69     82%   76 30.11 30.1      
Feb 18 17:53 WSW 8 10 Clear CLR 78 69     74%   79 30.1 30.09      
Feb 18 16:53 WSW 10 10 Clear CLR 81 69     67%   84 30.09 30.08      
May 15 12:18 SSW 10 10 Light Rain SCT035 BKN044 BKN055 84 73     70%   90 29.98   0    
May 15 03:53 SSE 6 10 Clear CLR 72 71     97%   73 29.91 29.9      
May 14 11:41 S 7 10 Light Rain SCT040 BKN046 OVC090 77 76     96%   79 29.93   0    
May 13 21:53 ENE 9 10 Light Rain BKN120 71 71     100%   73 30.01 30 0    
May 13 16:53 E 7 5 Rain and Fog/Mist FEW032 OVC100 72 72     100%   74 30.01 30 0 0  
May 13 12:53 E 7 5 Clear   73 72     96%   75 30.05 30.04 0    
May 13 12:39 ENE 11 6 Light Rain and Fog/Mist FEW005 BKN037 OVC060 73 73     100%   75 30.04   0    
May 13 12:15 E 16 2.5 Heavy Rain and Fog/Mist OVC027 75 73     94%   77 30.05   0    
May 12 08:53 Calm 10 Cloudy OVC110 74 66     76%   75 30.13 30.12      
May 12 07:53 ENE 9 10 Smoke OVC110 70 64     81%     30.09 30.08     0
May 12 03:53 Calm 5 Haze BKN110 72 61     68%   72 30.07 30.06      
May 11 14:53 E 14 10 Clear CLR 88 59     38%   87 30.06 30.05      
Jun 11 00:53 E 9 10 Clear CLR 76 74     94%   78 30.08 30.08      
Jun 10 23:53 E 7 10 Clear CLR 75 74     96%   77 30.09 30.08      
Jun 10 18:53 ENE 10 10 Clear   79 75     88%   83 30.06 30.05      
Notice The following observation data may not be complete
Jun 10 10:04   2 Heavy Rain and Fog/Mist BKN046 BKN060 OVC075          %         0    
Jun 10 08:36 ESE 9 9 Light Rain SCT029 BKN035 OVC043 75 72     90%   76 30.02   0    
Jun 09 10:53 ENE 5 10 Mostly Clear FEW019 83 72     70%   88 29.95 29.94      
Jun 08 17:53 WSW 14 10 Mostly Cloudy SCT028 BKN041 BKN048 84 72     67%   90 29.78 29.77      
Jun 08 16:00 W 13 10 Cloudy FEW033 BKN047 OVC055 84 72     67%   90 29.79        
Jun 07 16:53 S 11 2.5 Thunderstorms and Heavy Rain and Fog/Mist OVC028 73 72     96%   75 29.8 29.79 0 3  
Jun 07 16:11 SSW 11 2.5 Heavy Rain and Fog/Mist BKN007 OVC028 73 71     94%   74 29.82   0    
Jun 07 13:53 SW 14 1 Thunderstorms and Heavy Rain and Fog/Mist BKN012 BKN025 OVC041 70 69     97%     29.84 29.83 1   1
Jun 07 12:53 S 14 10 Thunderstorms and Rain FEW027 BKN037 OVC055 82 72     72%   87 29.8 29.79 0    
Jun 07 11:53 SSW 20 10 Clear and Windy   83 73     72%   89 29.81 29.8 0    
Jun 06 10:53 SSE 11 10 Light Rain FEW037 FEW045 OVC055 75 73     94%   77 29.87 29.86 0 0  
Jun 06 00:53 SSE 8 10 Mostly Cloudy FEW011 SCT044 BKN070 75 73     94%   77 29.9 29.89 0    
Jun 05 23:53 SSE 10 10 Light Rain FEW007 BKN100 OVC120 75 73     94%   77 29.91 29.9 0